Lid_Strength_Index
1 5 4 7 12 13 14 12 9 8 8 7 7 7 8 7 8 12 2 1 1 1 -0 -0 -0 -1 -1 -1 -1 -1 -1 -1 -1 -1 -1 -1 -1 -1 -1 -1 -1 -1 -1 -1 -1 -2 -2 -1 -1
3 2 6 9 14 17 14 10 10 8 7 7 7 7 6 8 4 4 3 1 0 0 0 -0 -1 -1 -1 -1 -1 -1 -1 -1 -1 -1 -1 -1 -1 -1 -1 -1 -1 -1 -1 -1 -2 -2 -1 -1 -1
2 2 8 11 14 15 14 10 9 7 6 6 7 5 6 6 4 3 1 1 0 0 -0 -0 -1 -1 -1 -1 -1 -1 -1 -1 -1 -1 -1 -1 -1 -1 -1 -1 -1 -1 -1 -2 -2 -2 -2 -1 -1
5 6 7 11 14 11 11 9 8 7 6 6 6 7 4 3 3 2 1 0 1 1 -0 -0 -0 -0 -1 -1 -1 -1 -1 -1 -1 -1 -1 -1 -1 -1 -1 -1 -1 -2 -2 -2 -2 -2 -2 -2 -2
7 8 11 12 11 10 9 7 7 8 6 7 6 7 6 3 1 1 1 1 1 1 -0 -0 -0 -0 -1 -1 -1 -1 -1 -1 -1 -1 -1 -1 -1 -1 -1 -1 -1 -2 -2 -2 -2 -2 -2 -2 -2
10 9 13 13 10 8 8 7 6 7 7 7 6 7 8 3 2 2 1 1 0 1 0 -0 -0 -0 -0 -1 -1 -1 -1 -1 -1 -1 -1 -1 -1 -1 -1 -1 -1 -2 -2 -2 -2 -2 -2 -1 -2
11 11 12 11 10 9 8 6 7 7 7 7 5 7 7 5 4 1 2 1 1 0 0 0 -0 -0 -1 -1 -1 -1 -0 -0 -1 -0 -1 -1 -1 -1 -1 -1 -1 -2 -2 -2 -2 -2 -2 -2 -2
8 9 11 9 10 10 7 6 5 6 6 4 4 7 8 6 4 1 2 2 1 1 0 0 -0 -0 -0 -0 -1 -0 -1 -1 -0 -1 -1 -1 -1 -1 -1 -1 -1 -2 -2 -2 -2 -2 -3 -3 -3
5 10 12 11 10 9 7 7 5 5 5 5 4 5 4 4 5 3 2 2 2 1 1 0 0 0 0 -0 -0 -0 -1 -1 -1 -1 -1 -0 -0 -0 -1 -1 -1 -2 -2 -2 -2 -3 -3 -3 -3
9 11 10 9 8 8 8 7 6 6 6 6 5 4 3 4 6 6 3 3 3 2 2 1 0 0 0 -0 -0 -0 -0 -0 -0 -0 -0 -0 0 0 -0 -1 -1 -2 -2 -2 -2 -3 -3 -3 -0
8 10 7 6 7 7 8 8 5 6 8 6 6 5 5 5 7 7 8 4 4 2 2 1 1 0 1 0 -0 0 0 -0 -0 -0 -0 0 -0 -0 -0 0 -0 0 -1 0 -1 -1 -0 0 0
10 7 7 6 5 7 8 6 8 7 7 6 6 6 7 7 7 6 8 7 6 2 2 1 1 1 1 0 0 0 0 -0 0 -0 -0 -0 0 0 1 0 0 0 0 0 1 0 0 0 0
9 7 6 6 6 7 6 8 8 7 6 6 6 6 6 6 6 7 7 8 7 3 2 1 0 1 1 0 0 0 0 0 -0 -0 -0 -0 0 1 1 1 0 0 0 0 0 1 0 1 1
7 7 7 7 7 7 8 7 8 7 5 5 6 6 5 5 5 7 7 8 7 5 2 1 1 1 1 0 1 1 1 0 0 -0 -0 -0 0 1 1 1 0 0 0 0 0 0 0 0 0
6 9 8 7 8 8 7 9 8 6 5 6 6 5 5 5 5 6 6 7 6 6 2 3 2 1 1 0 0 1 0 0 1 1 0 0 0 1 1 2 0 0 1 0 1 0 0 0 0
9 9 13 9 7 7 8 12 7 6 6 7 6 5 5 5 4 4 4 3 2 3 2 1 1 2 3 1 0 0 0 0 0 0 0 0 0 -0 0 1 0 1 1 0 1 1 1 1 1
10 13 12 10 7 8 9 11 7 6 6 7 7 6 5 5 4 4 3 2 3 2 2 3 2 4 3 1 0 1 0 0 1 0 0 0 0 0 0 1 1 1 1 1 1 1 1 2 2
13 13 11 11 9 8 10 10 8 7 7 7 7 7 6 6 5 4 3 2 2 2 2 2 1 1 1 1 1 1 1 1 0 1 1 0 0 0 0 1 1 0 1 1 1 1 1 2 1
9 10 11 9 7 9 10 10 9 8 8 8 8 7 7 6 5 4 3 3 3 2 2 2 2 2 2 2 2 2 2 1 1 1 1 1 0 0 1 1 2 1 1 1 1 1 2 2 1
9 11 11 10 8 10 10 10 9 8 7 7 7 6 6 6 6 5 4 3 3 4 2 2 2 2 2 1 1 1 1 1 1 1 1 1 0 0 0 1 1 1 1 1 1 1 2 2 1
10 11 11 11 9 9 10 11 10 7 7 7 7 6 6 6 6 5 4 4 3 3 3 3 2 2 2 2 1 2 1 2 2 1 1 1 1 1 1 1 1 1 1 1 1 1 2 3 2
12 8 8 9 11 15 10 16 11 9 9 8 7 8 7 6 5 5 4 4 4 3 2 3 2 2 2 2 2 2 3 3 2 2 1 1 1 1 1 1 1 1 1 1 1 1 1 2 3
10 7 8 9 12 12 11 14 12 10 10 9 8 7 7 6 5 5 4 3 3 3 3 2 2 2 1 1 2 2 3 2 2 2 2 1 1 0 1 1 1 1 1 1 1 1 1 1 2
6 9 9 10 12 16 13 13 13 11 10 9 8 7 7 7 6 6 5 5 4 4 3 3 2 2 2 2 2 2 3 2 3 2 2 2 1 1 1 0 1 1 1 1 1 1 1 1 1
8 12 16 18 18 17 12 15 13 9 8 8 9 8 8 7 7 7 7 6 5 5 5 3 4 3 2 2 2 2 2 2 3 2 2 2 2 2 1 1 1 1 0 1 1 1 1 1 2
10 11 18 22 21 18 11 15 12 8 7 7 7 8 7 8 7 7 6 6 5 4 3 3 3 3 3 2 2 2 2 2 2 2 2 2 2 1 1 1 1 1 1 0 1 1 1 1 1
10 12 10 14 14 18 14 11 9 8 8 8 8 8 9 8 7 5 6 5 6 6 4 3 3 3 3 2 3 2 2 2 2 2 1 1 1 1 1 1 1 1 1 1 1 1 1 1 1
9 8 14 14 20 21 15 13 14 11 10 9 10 10 9 8 7 6 6 6 6 6 6 6 5 3 3 2 2 2 2 2 2 2 2 1 1 1 1 1 1 1 1 1 1 1 1 1 1
11 12 11 13 15 19 20 16 10 10 11 11 10 9 8 7 7 7 6 6 7 6 6 6 5 5 5 5 4 3 2 2 2 2 2 1 1 1 1 1 1 1 1 1 1 1 1 2 2
8 10 11 17 18 16 17 16 8 9 9 9 8 7 7 8 7 7 8 7 7 8 7 7 7 7 6 5 5 5 3 2 2 2 2 1 1 1 1 1 1 1 1 5 3 2 1 3 2